Time,TemperatureF,DewpointF,PressureIn,WindDirection,WindDirectionDegrees,WindSpeedMPH,WindSpeedGustMPH,Humidity,HourlyPrecipIn,Conditions,Clouds,dailyrainin,SolarRadiationWatts/m^2,SoftwareType,DateUTC
2013-08-29 00:01:00,65.3,63.5,29.99,West,272,0.0,0.0,94,0.05,,,0.00,0.0,WUHU216DAVISVP2,2013-08-29 04:01:00,
2013-08-29 00:06:00,65.2,63.4,29.98,West,272,0.0,0.0,94,0.04,,,0.00,0.0,WUHU216DAVISVP2,2013-08-29 04:06:00,
2013-08-29 00:11:00,65.1,63.3,29.99,West,272,0.0,1.0,94,0.03,,,0.00,0.0,WUHU216DAVISVP2,2013-08-29 04:11:00,
2013-08-29 00:16:00,65.4,63.6,29.99,West,272,0.0,1.0,94,0.03,,,0.00,0.0,WUHU216DAVISVP2,2013-08-29 04:16:00,
2013-08-29 00:21:00,65.3,63.5,29.99,West,272,0.0,1.0,94,0.02,,,0.00,0.0,WUHU216DAVISVP2,2013-08-29 04:21:00,
2013-08-29 00:26:00,65.1,63.3,29.99,West,272,0.0,1.0,94,0.02,,,0.00,0.0,WUHU216DAVISVP2,2013-08-29 04:26:00,
2013-08-29 00:31:00,64.9,63.1,29.99,West,272,1.0,1.0,94,0.01,,,0.00,0.0,WUHU216DAVISVP2,2013-08-29 04:31:00,
2013-08-29 00:36:00,64.9,63.1,29.98,West,272,0.0,1.0,94,0.01,,,0.00,0.0,WUHU216DAVISVP2,2013-08-29 04:36:00,
2013-08-29 00:41:00,64.9,63.1,29.98,West,272,0.0,1.0,94,0.01,,,0.00,0.0,WUHU216DAVISVP2,2013-08-29 04:41:00,
2013-08-29 00:46:00,64.8,63.0,29.98,West,272,0.0,1.0,94,0.00,,,0.00,0.0,WUHU216DAVISVP2,2013-08-29 04:46:00,
2013-08-29 00:51:00,64.8,63.0,29.98,West,272,0.0,1.0,94,0.00,,,0.00,0.0,WUHU216DAVISVP2,2013-08-29 04:51:00,
2013-08-29 00:56:00,64.9,63.1,29.98,West,272,0.0,0.0,94,0.00,,,0.00,0.0,WUHU216DAVISVP2,2013-08-29 04:56:00,
2013-08-29 01:01:00,64.9,63.1,29.98,West,272,0.0,0.0,94,0.00,,,0.00,0.0,WUHU216DAVISVP2,2013-08-29 05:01:00,
2013-08-29 01:06:00,64.8,63.0,29.98,West,272,0.0,0.0,94,0.00,,,0.00,0.0,WUHU216DAVISVP2,2013-08-29 05:06:00,
2013-08-29 01:11:00,64.8,63.0,29.98,West,272,0.0,0.0,94,0.00,,,0.00,0.0,WUHU216DAVISVP2,2013-08-29 05:11:00,
2013-08-29 01:16:00,64.9,63.1,29.97,West,272,0.0,0.0,94,0.00,,,0.00,0.0,WUHU216DAVISVP2,2013-08-29 05:16:00,
2013-08-29 01:21:00,64.9,63.1,29.97,West,272,0.0,0.0,94,0.00,,,0.00,0.0,WUHU216DAVISVP2,2013-08-29 05:21:00,
2013-08-29 01:26:00,64.9,63.1,29.97,West,272,0.0,0.0,94,0.00,,,0.00,0.0,WUHU216DAVISVP2,2013-08-29 05:26:00,
2013-08-29 01:31:00,64.9,63.1,29.97,West,272,1.0,1.0,94,0.00,,,0.00,0.0,WUHU216DAVISVP2,2013-08-29 05:31:00,
2013-08-29 01:36:00,64.9,63.1,29.97,West,272,0.0,1.0,94,0.00,,,0.00,0.0,WUHU216DAVISVP2,2013-08-29 05:36:00,
2013-08-29 01:41:00,64.9,63.1,29.97,West,272,0.0,1.0,94,0.00,,,0.00,0.0,WUHU216DAVISVP2,2013-08-29 05:41:00,
2013-08-29 01:46:00,64.9,63.1,29.97,West,272,0.0,1.0,94,0.00,,,0.00,0.0,WUHU216DAVISVP2,2013-08-29 05:46:00,
2013-08-29 01:51:00,64.9,63.1,29.97,West,272,0.0,1.0,94,0.00,,,0.00,0.0,WUHU216DAVISVP2,2013-08-29 05:51:00,
2013-08-29 01:56:00,64.8,63.0,29.97,West,272,0.0,1.0,94,0.00,,,0.00,0.0,WUHU216DAVISVP2,2013-08-29 05:56:00,
2013-08-29 02:01:00,64.8,63.0,29.97,West,272,0.0,1.0,94,0.00,,,0.00,0.0,WUHU216DAVISVP2,2013-08-29 06:01:00,
2013-08-29 02:06:00,64.9,63.1,29.97,West,272,0.0,1.0,94,0.00,,,0.00,0.0,WUHU216DAVISVP2,2013-08-29 06:06:00,
2013-08-29 02:11:00,64.9,63.4,29.97,West,272,0.0,0.0,95,0.00,,,0.00,0.0,WUHU216DAVISVP2,2013-08-29 06:11:00,
2013-08-29 02:16:00,64.9,63.4,29.97,West,272,0.0,0.0,95,0.00,,,0.00,0.0,WUHU216DAVISVP2,2013-08-29 06:16:00,
2013-08-29 02:21:00,65.0,63.5,29.97,West,272,0.0,0.0,95,0.00,,,0.00,0.0,WUHU216DAVISVP2,2013-08-29 06:21:00,
2013-08-29 02:26:00,65.0,63.5,29.97,West,272,0.0,0.0,95,0.00,,,0.00,0.0,WUHU216DAVISVP2,2013-08-29 06:26:00,
2013-08-29 02:31:00,65.1,63.3,29.97,West,272,0.0,0.0,94,0.00,,,0.00,0.0,WUHU216DAVISVP2,2013-08-29 06:31:00,
2013-08-29 02:36:00,65.1,63.3,29.97,West,272,0.0,0.0,94,0.00,,,0.00,0.0,WUHU216DAVISVP2,2013-08-29 06:36:00,
2013-08-29 02:41:00,65.2,63.4,29.97,West,272,0.0,1.0,94,0.00,,,0.00,0.0,WUHU216DAVISVP2,2013-08-29 06:41:00,
2013-08-29 02:46:00,65.3,63.5,29.97,West,272,0.0,1.0,94,0.00,,,0.00,0.0,WUHU216DAVISVP2,2013-08-29 06:46:00,
2013-08-29 02:51:00,65.3,63.5,29.98,West,272,0.0,1.0,94,0.00,,,0.00,0.0,WUHU216DAVISVP2,2013-08-29 06:51:00,
2013-08-29 02:56:00,65.3,63.5,29.98,West,272,1.0,2.0,94,0.00,,,0.00,0.0,WUHU216DAVISVP2,2013-08-29 06:56:00,
2013-08-29 03:01:00,65.2,63.4,29.98,West,272,0.0,2.0,94,0.00,,,0.00,0.0,WUHU216DAVISVP2,2013-08-29 07:01:00,
2013-08-29 03:06:00,65.2,63.4,29.98,West,272,0.0,2.0,94,0.00,,,0.00,0.0,WUHU216DAVISVP2,2013-08-29 07:06:00,
2013-08-29 03:11:00,65.2,63.4,29.98,West,272,0.0,2.0,94,0.00,,,0.00,0.0,WUHU216DAVISVP2,2013-08-29 07:11:00,
2013-08-29 03:16:00,65.2,63.4,29.98,West,272,0.0,1.0,94,0.00,,,0.00,0.0,WUHU216DAVISVP2,2013-08-29 07:16:00,
2013-08-29 03:21:00,65.3,63.5,29.99,West,272,0.0,1.0,94,0.00,,,0.00,0.0,WUHU216DAVISVP2,2013-08-29 07:21:00,
2013-08-29 03:26:00,65.3,63.5,29.99,West,272,0.0,1.0,94,0.00,,,0.00,0.0,WUHU216DAVISVP2,2013-08-29 07:26:00,
2013-08-29 03:31:00,65.3,63.5,29.99,West,272,0.0,1.0,94,0.00,,,0.00,0.0,WUHU216DAVISVP2,2013-08-29 07:31:00,
2013-08-29 03:36:00,65.3,63.5,29.99,West,272,0.0,1.0,94,0.00,,,0.00,0.0,WUHU216DAVISVP2,2013-08-29 07:36:00,
2013-08-29 03:41:00,65.3,63.5,29.99,West,272,0.0,0.0,94,0.00,,,0.00,0.0,WUHU216DAVISVP2,2013-08-29 07:41:00,
2013-08-29 03:46:00,65.3,63.5,29.99,West,272,0.0,0.0,94,0.00,,,0.00,0.0,WUHU216DAVISVP2,2013-08-29 07:46:00,
2013-08-29 03:51:00,65.3,63.5,29.99,West,272,0.0,0.0,94,0.00,,,0.00,0.0,WUHU216DAVISVP2,2013-08-29 07:51:00,
2013-08-29 03:56:00,65.3,63.5,30.00,West,272,0.0,0.0,94,0.00,,,0.00,0.0,WUHU216DAVISVP2,2013-08-29 07:56:00,
2013-08-29 04:01:00,65.3,63.8,30.00,West,272,0.0,1.0,95,0.00,,,0.00,0.0,WUHU216DAVISVP2,2013-08-29 08:01:00,
2013-08-29 04:06:00,65.3,63.8,29.99,West,272,0.0,1.0,95,0.00,,,0.00,0.0,WUHU216DAVISVP2,2013-08-29 08:06:00,
2013-08-29 04:11:00,65.4,63.9,29.99,West,272,0.0,1.0,95,0.00,,,0.00,0.0,WUHU216DAVISVP2,2013-08-29 08:11:00,
2013-08-29 04:16:00,65.4,63.9,30.00,West,272,1.0,1.0,95,0.00,,,0.00,0.0,WUHU216DAVISVP2,2013-08-29 08:16:00,
2013-08-29 04:21:00,65.4,63.9,30.00,West,272,0.0,1.0,95,0.00,,,0.00,0.0,WUHU216DAVISVP2,2013-08-29 08:21:00,
2013-08-29 04:26:00,65.4,63.9,30.00,West,272,0.0,1.0,95,0.00,,,0.00,0.0,WUHU216DAVISVP2,2013-08-29 08:26:00,
2013-08-29 04:31:00,65.4,63.9,30.00,West,272,0.0,1.0,95,0.00,,,0.00,0.0,WUHU216DAVISVP2,2013-08-29 08:31:00,
2013-08-29 04:36:00,65.4,63.9,30.00,West,272,0.0,1.0,95,0.00,,,0.00,0.0,WUHU216DAVISVP2,2013-08-29 08:36:00,
2013-08-29 04:41:00,65.4,63.9,30.00,West,272,0.0,0.0,95,0.00,,,0.00,0.0,WUHU216DAVISVP2,2013-08-29 08:41:00,
2013-08-29 04:46:00,65.4,63.9,30.00,West,272,0.0,0.0,95,0.00,,,0.00,0.0,WUHU216DAVISVP2,2013-08-29 08:46:00,
2013-08-29 04:51:00,65.5,64.0,30.00,West,272,0.0,0.0,95,0.00,,,0.00,0.0,WUHU216DAVISVP2,2013-08-29 08:51:00,
2013-08-29 04:56:00,65.5,64.0,30.01,West,272,0.0,0.0,95,0.00,,,0.00,0.0,WUHU216DAVISVP2,2013-08-29 08:56:00,
2013-08-29 05:01:00,65.5,64.0,30.01,West,272,0.0,0.0,95,0.00,,,0.00,0.0,WUHU216DAVISVP2,2013-08-29 09:01:00,
2013-08-29 05:06:00,65.5,64.0,30.01,West,272,0.0,0.0,95,0.00,,,0.00,0.0,WUHU216DAVISVP2,2013-08-29 09:06:00,
2013-08-29 05:11:00,65.5,64.0,30.02,West,272,0.0,0.0,95,0.00,,,0.00,0.0,WUHU216DAVISVP2,2013-08-29 09:11:00,
2013-08-29 05:16:00,65.5,64.0,30.02,West,272,0.0,0.0,95,0.00,,,0.00,0.0,WUHU216DAVISVP2,2013-08-29 09:16:00,
2013-08-29 05:21:00,65.3,63.8,30.02,West,272,0.0,0.0,95,0.00,,,0.00,0.0,WUHU216DAVISVP2,2013-08-29 09:21:00,
2013-08-29 05:26:00,65.2,63.7,30.02,West,272,0.0,0.0,95,0.00,,,0.00,0.0,WUHU216DAVISVP2,2013-08-29 09:26:00,
2013-08-29 05:31:00,65.2,63.7,30.03,West,272,0.0,0.0,95,0.00,,,0.00,0.0,WUHU216DAVISVP2,2013-08-29 09:31:00,
2013-08-29 05:36:00,65.2,63.7,30.03,West,272,0.0,0.0,95,0.00,,,0.00,0.0,WUHU216DAVISVP2,2013-08-29 09:36:00,
2013-08-29 05:41:00,65.1,63.6,30.03,West,272,0.0,0.0,95,0.00,,,0.00,0.0,WUHU216DAVISVP2,2013-08-29 09:41:00,
2013-08-29 05:46:00,65.1,63.6,30.03,West,272,0.0,0.0,95,0.00,,,0.00,0.0,WUHU216DAVISVP2,2013-08-29 09:46:00,
2013-08-29 05:51:00,65.0,63.5,30.03,West,272,0.0,1.0,95,0.00,,,0.00,0.0,WUHU216DAVISVP2,2013-08-29 09:51:00,
2013-08-29 05:56:00,64.9,63.4,30.03,West,272,0.0,1.0,95,0.00,,,0.00,0.0,WUHU216DAVISVP2,2013-08-29 09:56:00,
2013-08-29 06:01:00,64.9,63.4,30.04,West,272,0.0,1.0,95,0.00,,,0.00,0.0,WUHU216DAVISVP2,2013-08-29 10:01:00,
2013-08-29 06:06:00,64.9,63.4,30.04,West,272,0.0,1.0,95,0.00,,,0.00,0.0,WUHU216DAVISVP2,2013-08-29 10:06:00,
2013-08-29 06:11:00,64.8,63.3,30.04,West,272,0.0,1.0,95,0.00,,,0.00,0.0,WUHU216DAVISVP2,2013-08-29 10:11:00,
2013-08-29 06:16:00,64.8,63.3,30.04,West,272,0.0,0.0,95,0.00,,,0.00,0.0,WUHU216DAVISVP2,2013-08-29 10:16:00,
2013-08-29 06:21:00,64.9,63.4,30.04,West,272,0.0,0.0,95,0.00,,,0.00,0.0,WUHU216DAVISVP2,2013-08-29 10:21:00,
2013-08-29 06:26:00,64.9,63.4,30.05,West,272,0.0,0.0,95,0.00,,,0.00,0.0,WUHU216DAVISVP2,2013-08-29 10:26:00,
2013-08-29 06:31:00,64.9,63.4,30.05,West,272,0.0,0.0,95,0.00,,,0.00,5.0,WUHU216DAVISVP2,2013-08-29 10:31:00,
2013-08-29 06:36:00,64.9,63.4,30.05,West,272,0.0,0.0,95,0.00,,,0.00,5.0,WUHU216DAVISVP2,2013-08-29 10:36:00,
2013-08-29 06:41:00,64.8,63.3,30.05,West,272,0.0,0.0,95,0.00,,,0.00,9.0,WUHU216DAVISVP2,2013-08-29 10:41:00,
2013-08-29 06:46:00,64.7,63.2,30.05,West,272,0.0,0.0,95,0.00,,,0.00,11.0,WUHU216DAVISVP2,2013-08-29 10:46:00,
2013-08-29 06:51:00,64.9,63.4,30.06,West,272,0.0,0.0,95,0.00,,,0.00,12.0,WUHU216DAVISVP2,2013-08-29 10:51:00,
2013-08-29 06:56:00,64.9,63.4,30.05,West,273,0.0,0.0,95,0.00,,,0.00,21.0,WUHU216DAVISVP2,2013-08-29 10:56:00,
2013-08-29 07:01:00,65.0,63.5,30.05,West,273,0.0,1.0,95,0.00,,,0.00,37.0,WUHU216DAVISVP2,2013-08-29 11:01:00,
2013-08-29 07:06:00,65.1,63.6,30.05,West,273,0.0,1.0,95,0.00,,,0.00,40.0,WUHU216DAVISVP2,2013-08-29 11:06:00,
2013-08-29 07:11:00,65.1,63.6,30.05,West,273,1.0,1.0,95,0.00,,,0.00,26.0,WUHU216DAVISVP2,2013-08-29 11:11:00,
2013-08-29 07:16:00,65.2,63.7,30.05,West,273,0.0,1.0,95,0.00,,,0.00,16.0,WUHU216DAVISVP2,2013-08-29 11:16:00,
2013-08-29 07:21:00,65.2,63.7,30.06,West,273,1.0,1.0,95,0.00,,,0.00,12.0,WUHU216DAVISVP2,2013-08-29 11:21:00,
2013-08-29 07:26:00,65.0,63.5,30.06,West,275,0.0,1.0,95,0.00,,,0.00,18.0,WUHU216DAVISVP2,2013-08-29 11:26:00,
2013-08-29 07:31:00,65.0,63.5,30.05,West,275,0.0,1.0,95,0.00,,,0.00,14.0,WUHU216DAVISVP2,2013-08-29 11:31:00,
2013-08-29 07:36:00,65.1,63.6,30.05,West,275,0.0,1.0,95,0.00,,,0.00,28.0,WUHU216DAVISVP2,2013-08-29 11:36:00,
2013-08-29 07:41:00,65.1,63.6,30.06,West,275,0.0,1.0,95,0.00,,,0.00,23.0,WUHU216DAVISVP2,2013-08-29 11:41:00,
2013-08-29 07:46:00,65.2,63.7,30.06,West,275,0.0,0.0,95,0.00,,,0.00,23.0,WUHU216DAVISVP2,2013-08-29 11:46:00,
2013-08-29 07:51:00,65.2,63.7,30.06,West,275,0.0,0.0,95,0.00,,,0.00,39.0,WUHU216DAVISVP2,2013-08-29 11:51:00,
2013-08-29 07:56:00,65.3,63.8,30.06,West,275,0.0,0.0,95,0.00,,,0.00,46.0,WUHU216DAVISVP2,2013-08-29 11:56:00,
2013-08-29 08:01:00,65.4,63.9,30.06,West,275,0.0,0.0,95,0.00,,,0.00,30.0,WUHU216DAVISVP2,2013-08-29 12:01:00,
2013-08-29 08:06:00,65.6,64.1,30.07,West,275,0.0,0.0,95,0.00,,,0.00,35.0,WUHU216DAVISVP2,2013-08-29 12:06:00,
2013-08-29 08:11:00,65.6,64.1,30.07,West,275,0.0,0.0,95,0.00,,,0.00,37.0,WUHU216DAVISVP2,2013-08-29 12:11:00,
2013-08-29 08:16:00,65.7,64.2,30.07,West,275,0.0,0.0,95,0.00,,,0.00,67.0,WUHU216DAVISVP2,2013-08-29 12:16:00,
2013-08-29 08:21:00,65.9,64.4,30.07,West,275,0.0,0.0,95,0.00,,,0.00,67.0,WUHU216DAVISVP2,2013-08-29 12:21:00,
2013-08-29 08:26:00,65.9,64.4,30.07,West,275,0.0,0.0,95,0.00,,,0.00,54.0,WUHU216DAVISVP2,2013-08-29 12:26:00,
2013-08-29 08:31:00,66.1,64.6,30.08,West,275,0.0,0.0,95,0.00,,,0.00,44.0,WUHU216DAVISVP2,2013-08-29 12:31:00,
2013-08-29 08:36:00,65.9,64.4,30.08,West,275,0.0,0.0,95,0.00,,,0.00,23.0,WUHU216DAVISVP2,2013-08-29 12:36:00,
2013-08-29 08:41:00,65.9,64.1,30.08,West,275,0.0,0.0,94,0.00,,,0.00,25.0,WUHU216DAVISVP2,2013-08-29 12:41:00,
2013-08-29 08:46:00,65.9,64.4,30.07,West,275,0.0,0.0,95,0.00,,,0.00,21.0,WUHU216DAVISVP2,2013-08-29 12:46:00,
2013-08-29 08:51:00,66.0,64.2,30.07,West,275,0.0,0.0,94,0.00,,,0.00,23.0,WUHU216DAVISVP2,2013-08-29 12:51:00,
2013-08-29 08:56:00,66.0,64.5,30.08,West,275,0.0,0.0,95,0.00,,,0.00,42.0,WUHU216DAVISVP2,2013-08-29 12:56:00,
2013-08-29 09:01:00,66.0,64.5,30.08,West,275,0.0,0.0,95,0.00,,,0.00,54.0,WUHU216DAVISVP2,2013-08-29 13:01:00,
2013-08-29 09:06:00,66.1,64.6,30.08,West,275,0.0,0.0,95,0.00,,,0.00,88.0,WUHU216DAVISVP2,2013-08-29 13:06:00,
2013-08-29 09:11:00,66.0,64.5,30.08,West,275,0.0,0.0,95,0.00,,,0.00,51.0,WUHU216DAVISVP2,2013-08-29 13:11:00,
2013-08-29 09:16:00,66.2,64.7,30.08,West,275,0.0,0.0,95,0.00,,,0.00,28.0,WUHU216DAVISVP2,2013-08-29 13:16:00,
2013-08-29 09:21:00,66.0,64.2,30.08,West,275,1.0,1.0,94,0.00,,,0.00,23.0,WUHU216DAVISVP2,2013-08-29 13:21:00,
2013-08-29 09:26:00,66.0,64.5,30.08,West,275,1.0,1.0,95,0.00,,,0.00,16.0,WUHU216DAVISVP2,2013-08-29 13:26:00,
2013-08-29 09:31:00,66.0,64.2,30.08,West,275,0.0,1.0,94,0.00,,,0.00,35.0,WUHU216DAVISVP2,2013-08-29 13:31:00,
2013-08-29 09:36:00,66.1,64.3,30.08,NNE,28,1.0,2.0,94,0.00,,,0.00,93.0,WUHU216DAVISVP2,2013-08-29 13:36:00,
2013-08-29 09:41:00,66.5,64.1,30.08,NNE,26,1.0,4.0,92,0.00,,,0.00,190.0,WUHU216DAVISVP2,2013-08-29 13:41:00,
2013-08-29 09:46:00,66.7,64.0,30.08,WNW,288,3.0,4.0,91,0.00,,,0.00,132.0,WUHU216DAVISVP2,2013-08-29 13:46:00,
2013-08-29 09:51:00,66.8,63.4,30.08,North,355,1.0,5.0,89,0.00,,,0.00,77.0,WUHU216DAVISVP2,2013-08-29 13:51:00,
2013-08-29 09:56:00,66.4,63.0,30.08,NNE,25,1.0,5.0,89,0.00,,,0.00,134.0,WUHU216DAVISVP2,2013-08-29 13:56:00,
2013-08-29 10:01:00,66.5,63.1,30.08,North,355,1.0,5.0,89,0.00,,,0.00,218.0,WUHU216DAVISVP2,2013-08-29 14:01:00,
2013-08-29 10:06:00,66.8,63.8,30.08,NNE,22,2.0,5.0,90,0.00,,,0.00,204.0,WUHU216DAVISVP2,2013-08-29 14:06:00,
2013-08-29 10:11:00,67.1,63.1,30.08,NW,318,0.0,5.0,87,0.00,,,0.00,239.0,WUHU216DAVISVP2,2013-08-29 14:11:00,
2013-08-29 10:16:00,67.3,63.9,30.08,West,275,1.0,4.0,89,0.00,,,0.00,178.0,WUHU216DAVISVP2,2013-08-29 14:16:00,
2013-08-29 10:21:00,67.3,63.3,30.08,SW,235,1.0,4.0,87,0.00,,,0.00,151.0,WUHU216DAVISVP2,2013-08-29 14:21:00,
2013-08-29 10:26:00,67.3,63.0,30.08,North,5,1.0,2.0,86,0.00,,,0.00,116.0,WUHU216DAVISVP2,2013-08-29 14:26:00,
2013-08-29 10:31:00,67.2,63.8,30.08,NNE,30,0.0,2.0,89,0.00,,,0.00,172.0,WUHU216DAVISVP2,2013-08-29 14:31:00,
2013-08-29 10:36:00,67.3,63.6,30.08,NE,34,0.0,2.0,88,0.00,,,0.00,139.0,WUHU216DAVISVP2,2013-08-29 14:36:00,
2013-08-29 10:41:00,67.5,64.5,30.08,NE,34,1.0,2.0,90,0.00,,,0.00,149.0,WUHU216DAVISVP2,2013-08-29 14:41:00,
2013-08-29 10:46:00,67.8,65.1,30.08,NE,34,0.0,2.0,91,0.00,,,0.00,209.0,WUHU216DAVISVP2,2013-08-29 14:46:00,
2013-08-29 10:51:00,68.3,64.9,30.08,NNE,32,0.0,2.0,89,0.00,,,0.00,250.0,WUHU216DAVISVP2,2013-08-29 14:51:00,
2013-08-29 10:56:00,68.3,63.6,30.08,NE,51,0.0,2.0,85,0.00,,,0.00,142.0,WUHU216DAVISVP2,2013-08-29 14:56:00,
2013-08-29 11:01:00,68.3,64.9,30.08,West,278,1.0,3.0,89,0.00,,,0.00,260.0,WUHU216DAVISVP2,2013-08-29 15:01:00,
2013-08-29 11:06:00,68.5,63.8,30.08,NNE,15,1.0,3.0,85,0.00,,,0.00,299.0,WUHU216DAVISVP2,2013-08-29 15:06:00,
2013-08-29 11:11:00,68.5,64.5,30.08,WNW,284,1.0,3.0,87,0.00,,,0.00,214.0,WUHU216DAVISVP2,2013-08-29 15:11:00,
2013-08-29 11:16:00,68.6,63.3,30.08,WNW,285,3.0,3.0,83,0.00,,,0.00,190.0,WUHU216DAVISVP2,2013-08-29 15:16:00,
2013-08-29 11:21:00,68.4,63.7,30.08,ENE,70,0.0,3.0,85,0.00,,,0.00,169.0,WUHU216DAVISVP2,2013-08-29 15:21:00,
2013-08-29 11:26:00,68.3,64.9,30.08,ENE,58,1.0,3.0,89,0.00,,,0.00,128.0,WUHU216DAVISVP2,2013-08-29 15:26:00,
2013-08-29 11:31:00,68.1,64.7,30.08,ENE,58,1.0,3.0,89,0.00,,,0.00,128.0,WUHU216DAVISVP2,2013-08-29 15:31:00,
2013-08-29 11:36:00,68.0,64.6,30.08,ENE,58,0.0,3.0,89,0.00,,,0.00,102.0,WUHU216DAVISVP2,2013-08-29 15:36:00,
2013-08-29 11:41:00,67.9,64.5,30.08,ENE,58,1.0,3.0,89,0.00,,,0.00,53.0,WUHU216DAVISVP2,2013-08-29 15:41:00,
2013-08-29 11:46:00,67.4,63.4,30.08,NE,47,1.0,3.0,87,0.00,,,0.00,46.0,WUHU216DAVISVP2,2013-08-29 15:46:00,
2013-08-29 11:51:00,67.2,63.8,30.08,NE,34,1.0,3.0,89,0.00,,,0.00,47.0,WUHU216DAVISVP2,2013-08-29 15:51:00,
2013-08-29 11:56:00,66.8,64.1,30.08,NE,34,0.0,3.0,91,0.00,,,0.00,65.0,WUHU216DAVISVP2,2013-08-29 15:56:00,
2013-08-29 12:01:00,66.9,63.9,30.08,NE,34,0.0,2.0,90,0.00,,,0.00,93.0,WUHU216DAVISVP2,2013-08-29 16:01:00,
2013-08-29 12:06:00,67.2,64.1,30.08,NE,34,1.0,2.0,90,0.00,,,0.00,130.0,WUHU216DAVISVP2,2013-08-29 16:06:00,
2013-08-29 12:11:00,67.6,64.9,30.08,NE,34,0.0,2.0,91,0.00,,,0.00,165.0,WUHU216DAVISVP2,2013-08-29 16:11:00,
2013-08-29 12:16:00,67.8,65.1,30.08,NE,34,0.0,2.0,91,0.00,,,0.00,181.0,WUHU216DAVISVP2,2013-08-29 16:16:00,
2013-08-29 12:21:00,68.0,65.2,30.08,NE,34,0.0,2.0,91,0.00,,,0.00,118.0,WUHU216DAVISVP2,2013-08-29 16:21:00,
2013-08-29 12:26:00,68.1,64.7,30.08,NE,34,0.0,2.0,89,0.00,,,0.00,190.0,WUHU216DAVISVP2,2013-08-29 16:26:00,
2013-08-29 12:31:00,68.0,64.3,30.08,NW,306,1.0,2.0,88,0.00,,,0.00,109.0,WUHU216DAVISVP2,2013-08-29 16:31:00,
2013-08-29 12:36:00,68.0,63.7,30.08,ENE,70,0.0,3.0,86,0.00,,,0.00,49.0,WUHU216DAVISVP2,2013-08-29 16:36:00,
2013-08-29 12:41:00,67.6,64.5,30.08,ENE,73,0.0,3.0,90,0.00,,,0.00,67.0,WUHU216DAVISVP2,2013-08-29 16:41:00,
2013-08-29 12:46:00,67.4,63.1,30.08,NW,311,1.0,3.0,86,0.00,,,0.00,98.0,WUHU216DAVISVP2,2013-08-29 16:46:00,
2013-08-29 12:51:00,67.4,63.1,30.08,NNE,15,0.0,3.0,86,0.00,,,0.00,125.0,WUHU216DAVISVP2,2013-08-29 16:51:00,
2013-08-29 12:56:00,67.4,63.1,30.08,SW,217,1.0,3.0,86,0.00,,,0.00,155.0,WUHU216DAVISVP2,2013-08-29 16:56:00,
2013-08-29 13:01:00,67.6,63.0,30.08,NNW,347,0.0,3.0,85,0.00,,,0.00,105.0,WUHU216DAVISVP2,2013-08-29 17:01:00,
2013-08-29 13:06:00,67.6,63.0,30.08,WSW,255,2.0,3.0,85,0.00,,,0.00,88.0,WUHU216DAVISVP2,2013-08-29 17:06:00,
2013-08-29 13:11:00,67.7,63.7,30.08,WSW,256,1.0,3.0,87,0.00,,,0.00,86.0,WUHU216DAVISVP2,2013-08-29 17:11:00,
2013-08-29 13:16:00,67.6,63.6,30.08,NE,51,0.0,3.0,87,0.00,,,0.00,185.0,WUHU216DAVISVP2,2013-08-29 17:16:00,
2013-08-29 13:21:00,68.2,63.9,30.08,WNW,296,1.0,3.0,86,0.00,,,0.00,271.0,WUHU216DAVISVP2,2013-08-29 17:21:00,
2013-08-29 13:26:00,68.3,63.6,30.07,NE,36,2.0,3.0,85,0.00,,,0.00,135.0,WUHU216DAVISVP2,2013-08-29 17:26:00,
2013-08-29 13:31:00,68.3,64.0,30.08,NE,36,1.0,3.0,86,0.00,,,0.00,84.0,WUHU216DAVISVP2,2013-08-29 17:31:00,
2013-08-29 13:36:00,67.9,63.2,30.07,NNE,18,0.0,3.0,85,0.00,,,0.00,65.0,WUHU216DAVISVP2,2013-08-29 17:36:00,
2013-08-29 13:41:00,67.8,63.8,30.07,NNW,333,1.0,3.0,87,0.00,,,0.00,84.0,WUHU216DAVISVP2,2013-08-29 17:41:00,
2013-08-29 13:46:00,67.6,63.6,30.07,NNW,333,1.0,3.0,87,0.00,,,0.00,120.0,WUHU216DAVISVP2,2013-08-29 17:46:00,
2013-08-29 13:51:00,67.8,62.8,30.07,NNW,333,0.0,3.0,84,0.00,,,0.00,167.0,WUHU216DAVISVP2,2013-08-29 17:51:00,
2013-08-29 13:56:00,68.2,63.5,30.07,West,275,1.0,3.0,85,0.00,,,0.00,109.0,WUHU216DAVISVP2,2013-08-29 17:56:00,
2013-08-29 14:01:00,68.1,63.1,30.07,NNE,28,1.0,4.0,84,0.00,,,0.00,79.0,WUHU216DAVISVP2,2013-08-29 18:01:00,
2013-08-29 14:06:00,67.8,62.8,30.07,West,280,1.0,4.0,84,0.00,,,0.00,88.0,WUHU216DAVISVP2,2013-08-29 18:06:00,
2013-08-29 14:11:00,67.7,63.0,30.07,WNW,289,1.0,3.0,85,0.00,,,0.00,81.0,WUHU216DAVISVP2,2013-08-29 18:11:00,
2013-08-29 14:16:00,67.3,63.0,30.07,ENE,63,2.0,3.0,86,0.00,,,0.00,58.0,WUHU216DAVISVP2,2013-08-29 18:16:00,
2013-08-29 14:21:00,66.8,62.8,30.07,West,259,2.0,3.0,87,0.00,,,0.00,54.0,WUHU216DAVISVP2,2013-08-29 18:21:00,
2013-08-29 14:26:00,66.2,62.5,30.07,NNE,16,1.0,3.0,88,0.00,,,0.00,51.0,WUHU216DAVISVP2,2013-08-29 18:26:00,
2013-08-29 14:31:00,66.1,62.4,30.07,NW,324,0.0,3.0,88,0.00,,,0.00,40.0,WUHU216DAVISVP2,2013-08-29 18:31:00,
2013-08-29 14:36:00,65.9,62.2,30.07,North,355,0.0,3.0,88,0.00,,,0.00,39.0,WUHU216DAVISVP2,2013-08-29 18:36:00,
2013-08-29 14:41:00,65.4,61.7,30.07,NNW,329,0.0,4.0,88,0.00,,,0.00,32.0,WUHU216DAVISVP2,2013-08-29 18:41:00,
2013-08-29 14:46:00,65.5,62.2,30.07,NNE,32,1.0,4.0,89,0.00,,,0.00,32.0,WUHU216DAVISVP2,2013-08-29 18:46:00,
2013-08-29 14:51:00,65.5,62.2,30.07,NE,55,0.0,4.0,89,0.00,,,0.00,32.0,WUHU216DAVISVP2,2013-08-29 18:51:00,
2013-08-29 14:56:00,65.4,62.1,30.07,NW,312,2.0,4.0,89,0.00,,,0.00,32.0,WUHU216DAVISVP2,2013-08-29 18:56:00,
2013-08-29 15:01:00,65.4,62.1,30.07,NW,315,2.0,2.0,89,0.00,,,0.00,33.0,WUHU216DAVISVP2,2013-08-29 19:01:00,
2013-08-29 15:06:00,65.3,62.0,30.07,WNW,291,0.0,2.0,89,0.00,,,0.00,42.0,WUHU216DAVISVP2,2013-08-29 19:06:00,
2013-08-29 15:11:00,65.3,62.3,30.07,NNW,330,1.0,2.0,90,0.00,,,0.00,35.0,WUHU216DAVISVP2,2013-08-29 19:11:00,
2013-08-29 15:16:00,65.0,61.7,30.07,NW,323,0.0,2.0,89,0.00,,,0.00,30.0,WUHU216DAVISVP2,2013-08-29 19:16:00,
2013-08-29 15:21:00,65.0,62.0,30.07,NNE,28,1.0,2.0,90,0.00,,,0.00,33.0,WUHU216DAVISVP2,2013-08-29 19:21:00,
2013-08-29 15:26:00,65.0,62.0,30.07,NNE,28,1.0,2.0,90,0.00,,,0.00,28.0,WUHU216DAVISVP2,2013-08-29 19:26:00,
2013-08-29 15:31:00,64.9,61.9,30.07,NNE,28,0.0,2.0,90,0.00,,,0.00,28.0,WUHU216DAVISVP2,2013-08-29 19:31:00,
2013-08-29 15:36:00,65.0,62.3,30.07,NNE,28,1.0,2.0,91,0.00,,,0.00,53.0,WUHU216DAVISVP2,2013-08-29 19:36:00,
2013-08-29 15:41:00,65.0,62.3,30.07,NNE,29,0.0,2.0,91,0.00,,,0.00,67.0,WUHU216DAVISVP2,2013-08-29 19:41:00,
2013-08-29 15:46:00,65.0,62.3,30.06,North,349,1.0,2.0,91,0.00,,,0.00,67.0,WUHU216DAVISVP2,2013-08-29 19:46:00,
2013-08-29 15:51:00,65.0,62.6,30.06,NNW,329,0.0,3.0,92,0.00,,,0.00,86.0,WUHU216DAVISVP2,2013-08-29 19:51:00,
2013-08-29 15:56:00,65.3,62.9,30.06,NNW,329,1.0,3.0,92,0.00,,,0.00,91.0,WUHU216DAVISVP2,2013-08-29 19:56:00,
2013-08-29 16:01:00,65.3,62.3,30.06,WSW,242,1.0,3.0,90,0.00,,,0.00,72.0,WUHU216DAVISVP2,2013-08-29 20:01:00,
2013-08-29 16:06:00,65.2,62.5,30.06,WSW,242,0.0,3.0,91,0.00,,,0.00,51.0,WUHU216DAVISVP2,2013-08-29 20:06:00,
2013-08-29 16:11:00,65.2,62.5,30.06,WSW,242,0.0,3.0,91,0.00,,,0.00,63.0,WUHU216DAVISVP2,2013-08-29 20:11:00,
2013-08-29 16:16:00,65.0,62.3,30.07,WSW,242,0.0,3.0,91,0.00,,,0.00,62.0,WUHU216DAVISVP2,2013-08-29 20:16:00,
2013-08-29 16:21:00,65.2,62.5,30.06,WSW,242,1.0,2.0,91,0.00,,,0.00,58.0,WUHU216DAVISVP2,2013-08-29 20:21:00,
2013-08-29 16:26:00,65.5,63.1,30.06,WSW,242,1.0,2.0,92,0.00,,,0.00,47.0,WUHU216DAVISVP2,2013-08-29 20:26:00,
2013-08-29 16:31:00,65.2,62.2,30.06,WSW,242,1.0,2.0,90,0.00,,,0.00,46.0,WUHU216DAVISVP2,2013-08-29 20:31:00,
2013-08-29 16:36:00,65.2,62.2,30.06,SSW,209,0.0,2.0,90,0.00,,,0.00,35.0,WUHU216DAVISVP2,2013-08-29 20:36:00,
2013-08-29 16:41:00,65.1,62.4,30.06,NE,34,1.0,2.0,91,0.00,,,0.00,30.0,WUHU216DAVISVP2,2013-08-29 20:41:00,
2013-08-29 16:46:00,65.0,62.3,30.06,NE,34,1.0,2.0,91,0.00,,,0.00,30.0,WUHU216DAVISVP2,2013-08-29 20:46:00,
2013-08-29 16:51:00,65.1,62.4,30.06,North,5,0.0,2.0,91,0.00,,,0.00,30.0,WUHU216DAVISVP2,2013-08-29 20:51:00,
2013-08-29 16:56:00,65.1,62.4,30.06,NNE,22,0.0,2.0,91,0.00,,,0.00,26.0,WUHU216DAVISVP2,2013-08-29 20:56:00,
2013-08-29 17:01:00,65.0,62.3,30.06,NNE,22,0.0,2.0,91,0.00,,,0.00,25.0,WUHU216DAVISVP2,2013-08-29 21:01:00,
2013-08-29 17:06:00,65.0,62.3,30.06,North,11,1.0,2.0,91,0.00,,,0.00,23.0,WUHU216DAVISVP2,2013-08-29 21:06:00,
2013-08-29 17:11:00,65.0,62.3,30.06,North,11,0.0,2.0,91,0.00,,,0.00,25.0,WUHU216DAVISVP2,2013-08-29 21:11:00,
2013-08-29 17:16:00,65.1,62.4,30.06,North,11,0.0,2.0,91,0.00,,,0.00,21.0,WUHU216DAVISVP2,2013-08-29 21:16:00,
2013-08-29 17:21:00,65.0,62.3,30.06,North,11,0.0,2.0,91,0.00,,,0.00,21.0,WUHU216DAVISVP2,2013-08-29 21:21:00,
2013-08-29 17:26:00,64.9,61.9,30.06,NE,47,1.0,3.0,90,0.00,,,0.00,23.0,WUHU216DAVISVP2,2013-08-29 21:26:00,
2013-08-29 17:31:00,64.7,61.7,30.06,NNE,24,0.0,3.0,90,0.00,,,0.00,23.0,WUHU216DAVISVP2,2013-08-29 21:31:00,
2013-08-29 17:36:00,64.7,61.7,30.06,NNE,24,0.0,3.0,90,0.00,,,0.00,21.0,WUHU216DAVISVP2,2013-08-29 21:36:00,
2013-08-29 17:41:00,64.6,61.9,30.06,NE,42,2.0,4.0,91,0.00,,,0.00,19.0,WUHU216DAVISVP2,2013-08-29 21:41:00,
2013-08-29 17:46:00,64.5,61.8,30.06,NE,42,0.0,4.0,91,0.00,,,0.00,19.0,WUHU216DAVISVP2,2013-08-29 21:46:00,
2013-08-29 17:51:00,64.5,61.8,30.06,NE,42,0.0,4.0,91,0.00,,,0.00,21.0,WUHU216DAVISVP2,2013-08-29 21:51:00,
2013-08-29 17:56:00,64.5,61.8,30.06,NE,42,1.0,4.0,91,0.00,,,0.00,23.0,WUHU216DAVISVP2,2013-08-29 21:56:00,
2013-08-29 18:01:00,64.5,61.8,30.06,SSE,150,1.0,2.0,91,0.00,,,0.00,18.0,WUHU216DAVISVP2,2013-08-29 22:01:00,
2013-08-29 18:06:00,64.4,61.4,30.06,WNW,283,2.0,4.0,90,0.00,,,0.00,19.0,WUHU216DAVISVP2,2013-08-29 22:06:00,
2013-08-29 18:11:00,64.3,61.6,30.06,West,281,0.0,4.0,91,0.00,,,0.00,16.0,WUHU216DAVISVP2,2013-08-29 22:11:00,
2013-08-29 18:16:00,64.3,61.6,30.05,WNW,284,0.0,4.0,91,0.00,,,0.00,18.0,WUHU216DAVISVP2,2013-08-29 22:16:00,
2013-08-29 18:21:00,64.2,61.2,30.06,WNW,284,0.0,4.0,90,0.00,,,0.00,16.0,WUHU216DAVISVP2,2013-08-29 22:21:00,
2013-08-29 18:26:00,64.2,61.5,30.06,WNW,284,0.0,2.0,91,0.00,,,0.00,14.0,WUHU216DAVISVP2,2013-08-29 22:26:00,
2013-08-29 18:31:00,64.1,61.4,30.05,WNW,302,2.0,3.0,91,0.00,,,0.00,16.0,WUHU216DAVISVP2,2013-08-29 22:31:00,
2013-08-29 18:36:00,64.1,61.4,30.05,WNW,294,1.0,3.0,91,0.00,,,0.00,26.0,WUHU216DAVISVP2,2013-08-29 22:36:00,
2013-08-29 18:41:00,64.1,61.4,30.05,ENE,69,1.0,3.0,91,0.00,,,0.00,26.0,WUHU216DAVISVP2,2013-08-29 22:41:00,
2013-08-29 18:46:00,64.1,61.4,30.05,NE,38,1.0,4.0,91,0.00,,,0.00,12.0,WUHU216DAVISVP2,2013-08-29 22:46:00,
2013-08-29 18:51:00,64.0,61.3,30.05,ENE,67,0.0,4.0,91,0.00,,,0.00,7.0,WUHU216DAVISVP2,2013-08-29 22:51:00,
2013-08-29 18:56:00,64.0,61.3,30.06,ENE,67,1.0,4.0,91,0.00,,,0.00,7.0,WUHU216DAVISVP2,2013-08-29 22:56:00,
2013-08-29 19:01:00,63.9,61.2,30.06,NW,325,0.0,4.0,91,0.00,,,0.00,7.0,WUHU216DAVISVP2,2013-08-29 23:01:00,
2013-08-29 19:06:00,63.9,61.2,30.06,WNW,299,1.0,3.0,91,0.00,,,0.00,5.0,WUHU216DAVISVP2,2013-08-29 23:06:00,
2013-08-29 19:11:00,63.9,61.2,30.06,WNW,299,0.0,3.0,91,0.00,,,0.00,0.0,WUHU216DAVISVP2,2013-08-29 23:11:00,
2013-08-29 19:16:00,63.7,61.0,30.06,NNE,22,0.0,3.0,91,0.00,,,0.00,0.0,WUHU216DAVISVP2,2013-08-29 23:16:00,
2013-08-29 19:21:00,63.6,60.9,30.06,NNE,32,0.0,3.0,91,0.00,,,0.00,0.0,WUHU216DAVISVP2,2013-08-29 23:21:00,
2013-08-29 19:26:00,63.5,60.8,30.06,NE,36,2.0,3.0,91,0.00,,,0.00,0.0,WUHU216DAVISVP2,2013-08-29 23:26:00,
2013-08-29 19:31:00,63.4,60.7,30.05,West,275,2.0,3.0,91,0.00,,,0.00,0.0,WUHU216DAVISVP2,2013-08-29 23:31:00,
2013-08-29 19:36:00,63.3,60.6,30.05,WNW,288,1.0,3.0,91,0.00,,,0.00,0.0,WUHU216DAVISVP2,2013-08-29 23:36:00,
2013-08-29 19:41:00,63.3,60.6,30.05,WNW,296,1.0,3.0,91,0.00,,,0.00,0.0,WUHU216DAVISVP2,2013-08-29 23:41:00,
2013-08-29 19:46:00,63.2,60.5,30.06,WSW,257,0.0,3.0,91,0.00,,,0.00,0.0,WUHU216DAVISVP2,2013-08-29 23:46:00,
2013-08-29 19:51:00,63.3,60.6,30.06,WSW,257,0.0,3.0,91,0.00,,,0.00,0.0,WUHU216DAVISVP2,2013-08-29 23:51:00,
2013-08-29 19:56:00,63.3,60.6,30.05,WSW,257,0.0,3.0,91,0.00,,,0.00,0.0,WUHU216DAVISVP2,2013-08-29 23:56:00,
2013-08-29 20:01:00,63.2,60.5,30.06,WSW,257,0.0,2.0,91,0.00,,,0.00,0.0,WUHU216DAVISVP2,2013-08-30 00:01:00,
2013-08-29 20:06:00,63.1,60.4,30.06,West,271,0.0,2.0,91,0.00,,,0.00,0.0,WUHU216DAVISVP2,2013-08-30 00:06:00,
2013-08-29 20:11:00,63.1,60.4,30.06,West,271,0.0,2.0,91,0.00,,,0.00,0.0,WUHU216DAVISVP2,2013-08-30 00:11:00,
2013-08-29 20:16:00,63.1,60.7,30.07,NW,306,1.0,2.0,92,0.00,,,0.00,0.0,WUHU216DAVISVP2,2013-08-30 00:16:00,
2013-08-29 20:21:00,63.1,60.7,30.07,NE,53,2.0,2.0,92,0.00,,,0.00,0.0,WUHU216DAVISVP2,2013-08-30 00:21:00,
2013-08-29 20:26:00,63.1,60.7,30.07,NE,53,0.0,2.0,92,0.00,,,0.00,0.0,WUHU216DAVISVP2,2013-08-30 00:26:00,
2013-08-29 20:31:00,63.1,60.7,30.07,NE,53,0.0,2.0,92,0.00,,,0.00,0.0,WUHU216DAVISVP2,2013-08-30 00:31:00,
2013-08-29 20:36:00,63.0,60.6,30.07,NE,53,0.0,2.0,92,0.00,,,0.00,0.0,WUHU216DAVISVP2,2013-08-30 00:36:00,
2013-08-29 20:41:00,63.0,60.6,30.07,NE,53,0.0,1.0,92,0.00,,,0.00,0.0,WUHU216DAVISVP2,2013-08-30 00:41:00,
2013-08-29 20:46:00,63.1,60.7,30.07,NE,53,0.0,1.0,92,0.00,,,0.00,0.0,WUHU216DAVISVP2,2013-08-30 00:46:00,
2013-08-29 20:51:00,63.1,60.7,30.07,NE,53,1.0,1.0,92,0.00,,,0.00,0.0,WUHU216DAVISVP2,2013-08-30 00:51:00,
2013-08-29 20:56:00,63.0,60.6,30.07,NE,53,0.0,1.0,92,0.00,,,0.00,0.0,WUHU216DAVISVP2,2013-08-30 00:56:00,
2013-08-29 21:01:00,63.0,60.6,30.07,NE,53,0.0,1.0,92,0.00,,,0.00,0.0,WUHU216DAVISVP2,2013-08-30 01:01:00,
2013-08-29 21:06:00,63.0,60.6,30.07,NE,53,1.0,1.0,92,0.00,,,0.00,0.0,WUHU216DAVISVP2,2013-08-30 01:06:00,
2013-08-29 21:11:00,63.0,60.3,30.07,NE,53,1.0,2.0,91,0.00,,,0.00,0.0,WUHU216DAVISVP2,2013-08-30 01:11:00,
2013-08-29 21:16:00,62.9,60.2,30.07,NE,53,0.0,2.0,91,0.00,,,0.00,0.0,WUHU216DAVISVP2,2013-08-30 01:16:00,
2013-08-29 21:21:00,62.9,60.2,30.07,NE,53,0.0,2.0,91,0.00,,,0.00,0.0,WUHU216DAVISVP2,2013-08-30 01:21:00,
2013-08-29 21:26:00,62.9,60.5,30.07,NNE,28,0.0,2.0,92,0.00,,,0.00,0.0,WUHU216DAVISVP2,2013-08-30 01:26:00,
2013-08-29 21:31:00,62.8,60.4,30.07,NNE,28,1.0,2.0,92,0.00,,,0.00,0.0,WUHU216DAVISVP2,2013-08-30 01:31:00,
2013-08-29 21:36:00,62.8,60.4,30.06,NNE,28,0.0,2.0,92,0.00,,,0.00,0.0,WUHU216DAVISVP2,2013-08-30 01:36:00,
2013-08-29 21:41:00,62.8,60.4,30.06,NNE,28,0.0,2.0,92,0.00,,,0.00,0.0,WUHU216DAVISVP2,2013-08-30 01:41:00,
2013-08-29 21:46:00,62.8,60.4,30.06,NNE,28,0.0,2.0,92,0.00,,,0.00,0.0,WUHU216DAVISVP2,2013-08-30 01:46:00,
2013-08-29 21:51:00,62.7,60.3,30.06,NNE,28,0.0,2.0,92,0.00,,,0.00,0.0,WUHU216DAVISVP2,2013-08-30 01:51:00,
2013-08-29 21:56:00,62.7,60.3,30.05,NNE,28,0.0,1.0,92,0.00,,,0.00,0.0,WUHU216DAVISVP2,2013-08-30 01:56:00,
2013-08-29 22:01:00,62.6,60.2,30.06,NNE,28,0.0,1.0,92,0.00,,,0.00,0.0,WUHU216DAVISVP2,2013-08-30 02:01:00,
2013-08-29 22:06:00,62.6,60.2,30.05,NNE,28,0.0,1.0,92,0.00,,,0.00,0.0,WUHU216DAVISVP2,2013-08-30 02:06:00,
2013-08-29 22:11:00,62.5,60.1,30.05,NNE,28,1.0,1.0,92,0.00,,,0.00,0.0,WUHU216DAVISVP2,2013-08-30 02:11:00,
2013-08-29 22:16:00,62.5,60.1,30.05,NNE,28,1.0,1.0,92,0.00,,,0.00,0.0,WUHU216DAVISVP2,2013-08-30 02:16:00,
2013-08-29 22:21:00,62.6,60.5,30.05,NNE,28,1.0,1.0,93,0.00,,,0.00,0.0,WUHU216DAVISVP2,2013-08-30 02:21:00,
2013-08-29 22:26:00,62.6,60.2,30.05,NNE,28,0.0,1.0,92,0.00,,,0.00,0.0,WUHU216DAVISVP2,2013-08-30 02:26:00,
2013-08-29 22:31:00,62.6,60.2,30.05,NNE,28,0.0,1.0,92,0.00,,,0.00,0.0,WUHU216DAVISVP2,2013-08-30 02:31:00,
2013-08-29 22:36:00,62.6,60.5,30.05,NNE,28,0.0,1.0,93,0.00,,,0.00,0.0,WUHU216DAVISVP2,2013-08-30 02:36:00,
2013-08-29 22:41:00,62.6,60.2,30.05,NNE,28,0.0,1.0,92,0.00,,,0.00,0.0,WUHU216DAVISVP2,2013-08-30 02:41:00,
2013-08-29 22:46:00,62.6,60.2,30.05,NNE,28,0.0,1.0,92,0.00,,,0.00,0.0,WUHU216DAVISVP2,2013-08-30 02:46:00,
2013-08-29 22:51:00,62.6,60.2,30.05,NNE,28,0.0,1.0,92,0.00,,,0.00,0.0,WUHU216DAVISVP2,2013-08-30 02:51:00,
2013-08-29 22:56:00,62.6,60.2,30.04,NNE,28,0.0,1.0,92,0.00,,,0.00,0.0,WUHU216DAVISVP2,2013-08-30 02:56:00,
2013-08-29 23:01:00,62.6,60.2,30.04,NNE,28,0.0,1.0,92,0.00,,,0.00,0.0,WUHU216DAVISVP2,2013-08-30 03:01:00,
2013-08-29 23:06:00,62.6,60.2,30.04,NNE,28,1.0,1.0,92,0.00,,,0.00,0.0,WUHU216DAVISVP2,2013-08-30 03:06:00,
2013-08-29 23:11:00,62.6,60.2,30.04,NNE,28,0.0,1.0,92,0.00,,,0.00,0.0,WUHU216DAVISVP2,2013-08-30 03:11:00,
2013-08-29 23:16:00,62.6,60.2,30.04,NNE,28,0.0,1.0,92,0.00,,,0.00,0.0,WUHU216DAVISVP2,2013-08-30 03:16:00,
2013-08-29 23:21:00,62.6,60.2,30.04,NE,44,0.0,2.0,92,0.00,,,0.00,0.0,WUHU216DAVISVP2,2013-08-30 03:21:00,
2013-08-29 23:26:00,62.7,60.3,30.03,NE,44,0.0,2.0,92,0.00,,,0.00,0.0,WUHU216DAVISVP2,2013-08-30 03:26:00,
2013-08-29 23:31:00,62.7,60.3,30.03,NE,44,1.0,2.0,92,0.00,,,0.00,0.0,WUHU216DAVISVP2,2013-08-30 03:31:00,
2013-08-29 23:36:00,62.7,60.3,30.03,NE,44,0.0,2.0,92,0.00,,,0.00,0.0,WUHU216DAVISVP2,2013-08-30 03:36:00,
2013-08-29 23:41:00,62.7,60.3,30.03,North,350,1.0,2.0,92,0.00,,,0.00,0.0,WUHU216DAVISVP2,2013-08-30 03:41:00,
2013-08-29 23:46:00,62.7,60.3,30.03,NNE,26,1.0,2.0,92,0.00,,,0.00,0.0,WUHU216DAVISVP2,2013-08-30 03:46:00,
2013-08-29 23:51:00,62.6,60.2,30.03,NE,37,0.0,2.0,92,0.00,,,0.00,0.0,WUHU216DAVISVP2,2013-08-30 03:51:00,
2013-08-29 23:56:00,62.6,60.2,30.03,NE,37,0.0,2.0,92,0.00,,,0.00,0.0,WUHU216DAVISVP2,2013-08-30 03:56:00,